QPF
0.00 0.00 0.00 0.00 0.00 0.00 0.00 0.00 0.00 0.00 0.00 0.00 0.00 0.00 0.00 0.00 0.00 0.00 0.00 0.00 0.00 0.00 0.00 0.00 0.00 0.00 0.00 0.00 0.00 0.00 0.00 0.00 0.00 0.00 0.00 0.00 0.00 0.00 0.00 0.00 0.00 0.00 0.00 0.00 0.00
0.00 0.00 0.00 0.00 0.00 0.00 0.00 0.00 0.00 0.00 0.00 0.00 0.00 0.00 0.00 0.00 0.00 0.00 0.00 0.00 0.00 0.00 0.00 0.00 0.00 0.00 0.00 0.00 0.00 0.00 0.00 0.00 0.00 0.00 0.00 0.00 0.00 0.00 0.00 0.00 0.00 0.00 0.00 0.00 0.00
0.00 0.00 0.00 0.00 0.00 0.00 0.00 0.00 0.00 0.00 0.00 0.00 0.00 0.00 0.00 0.00 0.00 0.00 0.00 0.00 0.00 0.00 0.00 0.00 0.00 0.00 0.00 0.00 0.00 0.00 0.00 0.00 0.00 0.00 0.00 0.00 0.00 0.00 0.00 0.00 0.00 0.00 0.00 0.00 0.00
0.00 0.00 0.00 0.00 0.00 0.00 0.00 0.00 0.00 0.00 0.00 0.00 0.00 0.00 0.00 0.00 0.00 0.00 0.00 0.00 0.00 0.00 0.00 0.00 0.00 0.00 0.00 0.00 0.00 0.00 0.00 0.00 0.00 0.00 0.00 0.00 0.00 0.00 0.00 0.00 0.00 0.00 0.00 0.00 0.00
0.00 0.00 0.00 0.00 0.00 0.00 0.00 0.00 0.00 0.00 0.00 0.01 0.00 0.00 0.00 0.00 0.00 0.00 0.00 0.00 0.00 0.00 0.00 0.00 0.00 0.00 0.00 0.00 0.00 0.00 0.00 0.00 0.00 0.00 0.00 0.00 0.00 0.00 0.00 0.00 0.00 0.00 0.00 0.00 0.00
0.00 0.00 0.00 0.00 0.00 0.00 0.00 0.00 0.00 0.00 0.00 0.03 0.02 0.00 0.00 0.00 0.00 0.00 0.00 0.00 0.00 0.00 0.00 0.00 0.00 0.00 0.00 0.00 0.00 0.00 0.00 0.00 0.00 0.00 0.00 0.00 0.00 0.00 0.00 0.00 0.00 0.00 0.00 0.00 0.00
0.01 0.00 0.00 0.00 0.00 0.00 0.00 0.00 0.00 0.00 0.00 0.03 0.06 0.01 0.00 0.00 0.00 0.00 0.00 0.00 0.00 0.00 0.00 0.00 0.00 0.00 0.00 0.00 0.00 0.00 0.00 0.00 0.00 0.00 0.00 0.00 0.00 0.00 0.00 0.00 0.00 0.00 0.00 0.00 0.00
0.01 0.00 0.00 0.00 0.00 0.00 0.00 0.00 0.00 0.00 0.00 0.02 0.10 0.01 0.00 0.00 0.00 0.00 0.00 0.00 0.00 0.00 0.00 0.00 0.00 0.00 0.00 0.00 0.00 0.00 0.00 0.00 0.00 0.00 0.00 0.00 0.00 0.00 0.00 0.00 0.00 0.00 0.00 0.00 0.00
0.02 0.00 0.00 0.00 0.00 0.00 0.00 0.00 0.00 0.00 0.00 0.04 0.10 0.02 0.00 0.01 0.01 0.00 0.00 0.00 0.00 0.00 0.00 0.00 0.00 0.00 0.00 0.00 0.00 0.00 0.00 0.00 0.00 0.00 0.00 0.00 0.00 0.00 0.00 0.00 0.00 0.00 0.00 0.00 0.00
0.02 0.00 0.00 0.00 0.00 0.00 0.00 0.01 0.00 0.01 0.00 0.05 0.06 0.01 0.01 0.00 0.00 0.01 0.02 0.00 0.00 0.00 0.00 0.00 0.00 0.00 0.00 0.00 0.00 0.00 0.00 0.00 0.00 0.00 0.00 0.00 0.00 0.00 0.00 0.00 0.00 0.00 0.00 0.00 0.00
0.00 0.00 0.00 0.00 0.00 0.00 0.01 0.00 0.00 0.01 0.00 0.03 0.02 0.00 0.00 0.00 0.00 0.02 0.03 0.00 0.00 0.00 0.00 0.00 0.00 0.00 0.00 0.00 0.00 0.00 0.00 0.00 0.00 0.00 0.00 0.00 0.00 0.00 0.00 0.00 0.00 0.00 0.00 0.00 0.00
0.00 0.00 0.00 0.00 0.00 0.02 0.01 0.01 0.00 0.01 0.00 0.02 0.01 0.01 0.00 0.00 0.00 0.02 0.07 0.01 0.00 0.00 0.00 0.01 0.00 0.00 0.00 0.00 0.00 0.00 0.00 0.00 0.00 0.00 0.00 0.00 0.00 0.00 0.00 0.00 0.00 0.00 0.00 0.00 0.00
0.00 0.00 0.00 0.01 0.02 0.01 0.01 0.04 0.03 0.00 0.01 0.00 0.01 0.01 0.01 0.00 0.00 0.00 0.04 0.02 0.00 0.00 0.01 0.00 0.00 0.00 0.00 0.00 0.00 0.00 0.00 0.00 0.00 0.00 0.00 0.00 0.00 0.00 0.00 0.00 0.00 0.00 0.00 0.01 0.03
0.00 0.00 0.04 0.03 0.01 0.00 0.01 0.07 0.02 0.00 0.01 0.00 0.01 0.02 0.00 0.00 0.00 0.02 0.04 0.03 0.02 0.00 0.01 0.01 0.00 0.00 0.01 0.00 0.00 0.00 0.00 0.00 0.00 0.00 0.00 0.00 0.00 0.00 0.00 0.00 0.00 0.00 0.00 0.00 0.00
0.01 0.01 0.02 0.01 0.05 0.04 0.07 0.10 0.06 0.01 0.00 0.00 0.00 0.01 0.00 0.00 0.00 0.01 0.03 0.01 0.01 0.01 0.01 0.00 0.00 0.00 0.01 0.00 0.00 0.00 0.00 0.00 0.00 0.00 0.00 0.00 0.00 0.00 0.00 0.00 0.00 0.00 0.00 0.00 0.00
0.01 0.00 0.00 0.01 0.06 0.06 0.05 0.05 0.05 0.00 0.00 0.00 0.00 0.01 0.00 0.00 0.00 0.00 0.00 0.00 0.00 0.00 0.00 0.00 0.00 0.00 0.00 0.00 0.00 0.00 0.00 0.00 0.00 0.00 0.00 0.00 0.00 0.00 0.00 0.00 0.00 0.00 0.00 0.00 0.00
0.00 0.00 0.00 0.01 0.01 0.04 0.07 0.01 0.00 0.00 0.00 0.00 0.00 0.00 0.00 0.00 0.00 0.00 0.00 0.00 0.00 0.00 0.00 0.00 0.00 0.00 0.00 0.00 0.00 0.00 0.00 0.00 0.00 0.00 0.00 0.00 0.00 0.00 0.00 0.00 0.00 0.00 0.00 0.00 0.00
0.00 0.00 0.00 0.00 0.00 0.01 0.02 0.00 0.00 0.00 0.00 0.00 0.00 0.00 0.00 0.00 0.00 0.00 0.00 0.00 0.00 0.00 0.00 0.00 0.00 0.00 0.00 0.00 0.00 0.00 0.00 0.00 0.00 0.00 0.00 0.00 0.00 0.00 0.00 0.00 0.00 0.00 0.00 0.00 0.00
0.00 0.00 0.00 0.00 0.00 0.00 0.00 0.00 0.00 0.00 0.00 0.00 0.00 0.00 0.00 0.00 0.00 0.00 0.00 0.00 0.00 0.00 0.00 0.00 0.00 0.00 0.00 0.00 0.00 0.00 0.00 0.00 0.00 0.00 0.00 0.00 0.00 0.00 0.00 0.00 0.00 0.00 0.00 0.00 0.00
0.00 0.00 0.00 0.00 0.00 0.00 0.00 0.00 0.00 0.00 0.00 0.00 0.00 0.00 0.00 0.00 0.00 0.00 0.00 0.00 0.00 0.00 0.00 0.00 0.00 0.00 0.00 0.00 0.00 0.00 0.00 0.00 0.00 0.00 0.00 0.00 0.00 0.00 0.00 0.00 0.00 0.00 0.00 0.00 0.00
0.00 0.00 0.00 0.00 0.00 0.00 0.00 0.00 0.00 0.00 0.00 0.00 0.00 0.00 0.00 0.00 0.00 0.00 0.00 0.00 0.00 0.00 0.00 0.00 0.00 0.00 0.00 0.00 0.00 0.00 0.00 0.00 0.00 0.00 0.00 0.00 0.00 0.00 0.00 0.00 0.00 0.00 0.00 0.00 0.00
0.00 0.00 0.00 0.00 0.00 0.00 0.00 0.00 0.00 0.00 0.00 0.00 0.00 0.00 0.00 0.00 0.00 0.00 0.00 0.00 0.00 0.00 0.00 0.00 0.00 0.00 0.00 0.00 0.00 0.00 0.00 0.00 0.00 0.00 0.00 0.00 0.00 0.00 0.00 0.00 0.00 0.00 0.00 0.00 0.00
0.00 0.00 0.00 0.00 0.00 0.00 0.00 0.00 0.00 0.00 0.00 0.00 0.00 0.00 0.00 0.00 0.00 0.00 0.00 0.00 0.00 0.00 0.00 0.00 0.00 0.00 0.00 0.00 0.00 0.00 0.00 0.00 0.00 0.00 0.00 0.00 0.00 0.00 0.00 0.00 0.00 0.00 0.00 0.00 0.00
0.00 0.00 0.00 0.00 0.00 0.00 0.00 0.00 0.00 0.00 0.00 0.00 0.00 0.00 0.00 0.00 0.00 0.00 0.00 0.00 0.00 0.00 0.00 0.00 0.00 0.00 0.00 0.00 0.00 0.00 0.00 0.00 0.00 0.00 0.00 0.00 0.00 0.00 0.00 0.00 0.00 0.00 0.00 0.00 0.00
0.00 0.00 0.00 0.00 0.00 0.00 0.00 0.00 0.00 0.00 0.00 0.00 0.00 0.00 0.00 0.00 0.00 0.00 0.00 0.00 0.00 0.00 0.00 0.00 0.00 0.00 0.00 0.00 0.00 0.00 0.00 0.00 0.00 0.00 0.00 0.00 0.00 0.00 0.00 0.00 0.00 0.00 0.00 0.00 0.00
0.00 0.00 0.00 0.00 0.00 0.00 0.00 0.00 0.00 0.00 0.00 0.00 0.00 0.00 0.00 0.00 0.00 0.00 0.00 0.00 0.00 0.00 0.00 0.00 0.00 0.00 0.00 0.00 0.00 0.00 0.00 0.00 0.00 0.00 0.00 0.00 0.00 0.00 0.00 0.00 0.00 0.00 0.00 0.00 0.00
0.00 0.00 0.00 0.00 0.00 0.00 0.00 0.00 0.00 0.00 0.00 0.00 0.00 0.00 0.00 0.00 0.00 0.00 0.00 0.00 0.00 0.00 0.00 0.00 0.00 0.00 0.00 0.00 0.00 0.00 0.00 0.00 0.00 0.00 0.00 0.00 0.00 0.00 0.00 0.00 0.00 0.00 0.00 0.00 0.00
MSLP
1019.99 1019.90 1019.76 1019.79 1019.80 1019.76 1019.64 1019.55 1019.42 1019.35 1019.37 1019.32 1018.91 1018.89 1018.80 1018.57 1018.05 1017.57 1017.97 1018.17 1017.98 1017.90 1017.44 1016.96 1016.27 1015.90 1015.90 1016.73 1016.80 1016.80 1017.28 1016.80 1016.00 1015.48 1014.54 1014.07 1014.28 1014.52 1014.62 1015.39 1015.84 1015.96 1016.42 1016.40 1017.68
1019.93 1019.82 1019.74 1019.64 1019.68 1019.73 1019.55 1019.46 1019.45 1019.35 1019.24 1019.34 1019.29 1018.92 1018.77 1018.62 1018.35 1017.92 1018.18 1017.95 1017.65 1017.31 1017.27 1017.23 1016.77 1016.72 1017.02 1017.11 1017.30 1017.36 1017.33 1016.46 1015.69 1015.20 1014.80 1014.32 1014.22 1014.57 1014.96 1015.50 1016.20 1016.33 1016.45 1016.80 1017.75
1019.88 1019.79 1019.75 1019.74 1019.64 1019.58 1019.50 1019.31 1019.25 1019.26 1019.01 1019.03 1019.17 1019.13 1018.97 1018.65 1018.25 1017.65 1017.84 1017.76 1017.49 1017.17 1017.33 1017.46 1017.04 1017.04 1017.12 1017.25 1017.73 1017.42 1017.09 1016.39 1015.78 1015.39 1014.94 1014.42 1014.58 1014.63 1015.02 1015.66 1015.77 1016.22 1016.82 1017.36 1017.87
1019.90 1019.72 1019.71 1019.69 1019.61 1019.49 1019.45 1019.42 1019.18 1019.02 1018.95 1018.94 1018.93 1019.07 1018.93 1018.97 1018.77 1017.84 1017.79 1017.41 1017.29 1017.13 1017.29 1017.69 1017.55 1017.57 1017.43 1017.70 1017.77 1018.10 1017.02 1016.65 1016.10 1015.48 1015.06 1014.62 1014.43 1014.74 1014.99 1014.87 1014.93 1015.76 1016.30 1017.30 1017.90
1019.65 1019.63 1019.50 1019.54 1019.49 1019.36 1019.31 1019.27 1019.32 1019.21 1018.90 1018.74 1018.96 1019.15 1019.13 1018.92 1018.36 1018.21 1017.94 1017.39 1017.27 1017.61 1017.85 1017.87 1017.76 1017.79 1017.77 1018.07 1018.35 1018.18 1017.35 1016.62 1016.36 1015.48 1015.21 1014.72 1014.53 1014.76 1014.99 1014.98 1015.36 1016.15 1016.81 1017.34 1017.91
1019.39 1019.39 1019.35 1019.33 1019.37 1019.30 1019.16 1019.11 1019.03 1019.05 1019.17 1019.00 1018.96 1019.15 1019.28 1018.90 1018.18 1018.07 1017.97 1017.89 1017.74 1017.97 1018.29 1018.02 1018.15 1018.07 1018.24 1018.14 1018.48 1018.19 1017.59 1016.77 1016.08 1015.79 1015.50 1014.98 1014.98 1014.96 1015.17 1015.34 1016.03 1016.57 1017.05 1017.47 1017.78
1019.09 1019.13 1019.11 1019.13 1019.24 1019.27 1019.09 1018.91 1018.86 1018.96 1018.84 1018.90 1019.07 1019.36 1019.12 1018.31 1017.91 1018.34 1018.38 1018.06 1017.81 1018.12 1018.53 1018.54 1018.33 1018.38 1018.28 1018.51 1018.85 1018.13 1017.77 1016.83 1016.29 1015.95 1015.88 1015.57 1015.45 1015.36 1015.36 1015.71 1016.36 1016.96 1017.34 1017.65 1018.00
1018.69 1018.78 1018.88 1018.91 1018.98 1019.09 1019.01 1018.84 1018.71 1018.81 1018.84 1018.69 1018.74 1019.11 1018.66 1017.96 1018.09 1018.57 1018.48 1018.53 1018.08 1018.12 1018.51 1018.61 1018.64 1018.66 1018.82 1018.98 1018.93 1018.71 1018.46 1017.83 1016.84 1016.65 1016.35 1016.29 1015.92 1015.61 1015.76 1016.07 1016.84 1017.12 1017.56 1017.70 1017.78
1018.33 1018.40 1018.54 1018.67 1018.75 1018.82 1018.85 1018.82 1018.65 1018.68 1018.57 1018.38 1018.97 1018.94 1018.70 1018.17 1018.30 1018.22 1018.12 1018.36 1018.42 1018.44 1018.86 1018.70 1018.76 1018.99 1019.18 1019.02 1019.47 1019.09 1018.64 1018.26 1017.98 1017.44 1018.02 1016.96 1016.47 1015.99 1016.15 1016.61 1017.03 1017.35 1017.63 1017.66 1017.84
1018.03 1018.11 1018.20 1018.38 1018.52 1018.56 1018.58 1018.61 1018.64 1018.62 1018.54 1018.43 1018.76 1019.40 1018.71 1018.13 1017.88 1018.04 1018.18 1018.26 1018.28 1018.51 1019.34 1018.90 1019.18 1019.04 1019.04 1018.80 1017.88 1018.55 1018.94 1018.91 1018.60 1018.99 1018.78 1017.68 1017.16 1016.71 1016.76 1017.06 1017.13 1017.35 1017.60 1017.62 1017.57
1017.56 1017.74 1017.89 1018.05 1018.24 1018.33 1018.55 1018.79 1019.25 1019.20 1018.68 1018.27 1018.31 1018.48 1017.89 1018.00 1017.80 1017.96 1018.02 1018.26 1018.22 1018.60 1019.44 1018.94 1019.00 1018.55 1018.66 1018.48 1018.35 1018.20 1018.82 1019.31 1019.54 1019.49 1019.76 1018.90 1018.04 1017.53 1017.26 1017.25 1017.49 1017.68 1017.58 1017.48 1017.32
1017.22 1017.48 1017.66 1017.78 1017.89 1018.02 1018.55 1018.65 1018.07 1017.95 1018.47 1018.47 1018.36 1018.47 1018.34 1017.93 1017.95 1017.91 1018.13 1018.26 1018.41 1018.60 1018.98 1019.24 1018.51 1018.28 1018.18 1018.38 1018.60 1018.41 1018.76 1019.72 1020.39 1020.60 1020.12 1019.66 1018.74 1017.78 1017.19 1017.26 1017.22 1017.14 1017.35 1017.28 1017.16
1017.07 1017.26 1017.39 1017.49 1017.51 1017.98 1018.21 1018.02 1017.63 1017.71 1018.30 1018.75 1018.59 1018.57 1018.50 1018.15 1017.55 1017.57 1018.03 1017.81 1018.24 1018.40 1018.68 1018.72 1018.20 1018.13 1018.04 1018.50 1018.91 1018.99 1018.77 1019.67 1020.34 1020.94 1020.74 1020.02 1019.25 1018.22 1017.32 1017.20 1017.03 1017.21 1017.27 1017.55 1017.75
1016.90 1017.03 1017.14 1017.28 1017.98 1017.94 1018.10 1017.68 1017.65 1017.73 1018.54 1018.80 1018.58 1018.29 1018.48 1018.16 1017.67 1017.15 1017.57 1017.90 1018.23 1018.27 1018.62 1018.46 1018.27 1018.03 1018.33 1018.63 1018.87 1019.48 1019.53 1020.07 1020.59 1021.17 1021.53 1021.27 1020.33 1018.94 1018.32 1017.69 1017.27 1017.67 1018.17 1018.40 1018.65
1016.94 1016.98 1017.12 1017.35 1017.72 1017.99 1018.17 1018.01 1018.02 1018.03 1018.63 1018.37 1018.28 1018.10 1017.82 1018.25 1017.69 1017.56 1017.89 1018.27 1018.23 1018.16 1018.33 1018.32 1018.10 1018.11 1018.29 1018.44 1019.00 1019.79 1020.16 1020.66 1021.20 1021.75 1021.95 1021.89 1021.38 1019.74 1018.91 1018.10 1018.18 1018.48 1019.34 1018.91 1019.22
1016.93 1017.01 1017.23 1017.58 1017.86 1018.43 1018.20 1018.35 1018.49 1019.31 1018.84 1018.56 1018.20 1018.03 1018.39 1018.46 1018.06 1018.06 1018.07 1018.34 1018.81 1018.59 1018.64 1018.67 1018.32 1018.43 1018.26 1018.61 1019.33 1020.00 1020.96 1021.75 1022.25 1022.40 1022.43 1021.56 1021.30 1020.13 1019.27 1019.20 1019.60 1020.25 1020.59 1020.25 1020.26
1017.04 1017.24 1017.54 1017.85 1018.36 1018.46 1018.54 1018.73 1019.59 1019.81 1019.60 1019.23 1018.76 1018.44 1018.21 1018.42 1018.50 1018.08 1018.47 1018.69 1018.64 1019.15 1019.34 1019.51 1019.22 1018.98 1018.56 1019.41 1019.78 1020.07 1020.81 1022.46 1023.15 1023.07 1022.30 1021.49 1021.46 1020.23 1019.31 1018.99 1019.31 1020.39 1020.95 1021.06 1021.20
1017.35 1017.47 1018.16 1018.42 1018.31 1018.18 1018.78 1019.66 1020.32 1020.61 1020.27 1019.58 1019.24 1018.99 1018.44 1018.46 1018.62 1018.56 1018.81 1019.28 1019.39 1019.40 1019.92 1020.20 1020.51 1019.38 1018.98 1018.96 1019.18 1019.90 1020.14 1020.74 1021.73 1022.59 1022.34 1021.73 1020.95 1020.34 1019.41 1018.98 1019.20 1020.22 1021.02 1021.70 1021.99
1017.63 1018.22 1018.59 1018.50 1018.26 1018.24 1019.19 1020.24 1021.07 1021.17 1020.74 1020.09 1019.58 1019.13 1018.70 1018.59 1018.57 1018.73 1019.20 1019.48 1019.70 1019.75 1020.19 1020.09 1020.18 1019.76 1019.00 1018.88 1019.23 1019.87 1019.87 1019.74 1021.03 1022.48 1021.99 1021.61 1020.80 1020.31 1019.76 1019.88 1020.16 1020.69 1020.89 1021.42 1021.65
1018.38 1018.87 1019.26 1018.64 1018.37 1018.80 1020.06 1021.34 1021.53 1021.21 1020.75 1020.23 1019.74 1019.08 1018.43 1018.39 1018.66 1018.94 1019.42 1019.74 1019.63 1019.68 1019.61 1019.60 1019.96 1020.26 1019.74 1019.02 1019.02 1018.84 1018.87 1019.67 1020.51 1021.91 1022.15 1021.73 1020.75 1020.60 1020.49 1020.52 1020.52 1021.39 1021.94 1022.22 1022.33
1019.00 1019.58 1019.35 1018.76 1018.72 1019.89 1021.49 1022.10 1021.59 1021.00 1020.74 1020.28 1019.87 1019.27 1018.75 1018.70 1018.67 1019.33 1019.70 1020.20 1019.79 1019.56 1019.55 1019.43 1019.47 1020.70 1020.70 1019.83 1019.34 1018.90 1018.69 1019.29 1019.99 1021.30 1021.83 1021.77 1021.13 1020.55 1020.56 1020.72 1020.80 1021.53 1022.05 1022.74 1023.32
1019.70 1020.57 1019.58 1019.14 1020.41 1021.96 1022.56 1022.51 1021.86 1021.16 1020.52 1020.30 1020.00 1019.74 1019.68 1019.39 1019.36 1019.94 1020.15 1020.37 1020.46 1020.34 1019.72 1019.65 1019.98 1020.87 1020.66 1020.10 1019.52 1018.76 1018.64 1019.06 1020.22 1021.46 1021.54 1021.25 1021.50 1020.65 1020.91 1021.31 1021.40 1022.01 1022.89 1023.59 1024.03
1020.44 1020.87 1020.00 1019.84 1021.87 1023.14 1023.07 1022.68 1022.05 1021.38 1020.79 1020.43 1020.25 1020.25 1020.06 1020.01 1020.29 1020.62 1020.95 1021.13 1020.82 1020.69 1020.08 1019.95 1020.39 1021.22 1021.48 1021.08 1019.94 1019.22 1019.09 1019.35 1019.89 1020.72 1021.08 1021.37 1022.06 1021.71 1021.78 1022.09 1022.42 1022.91 1023.70 1024.13 1024.46
1020.95 1022.11 1021.85 1022.04 1023.02 1023.21 1023.29 1022.83 1022.30 1021.51 1020.93 1020.60 1020.52 1020.53 1020.71 1020.86 1020.66 1021.06 1021.49 1021.68 1021.24 1020.97 1020.51 1020.07 1020.71 1020.70 1020.69 1020.04 1019.49 1019.89 1019.55 1019.67 1019.83 1020.83 1021.29 1021.00 1021.82 1022.30 1022.34 1022.56 1023.28 1024.06 1024.45 1024.74 1024.97
1021.47 1023.59 1023.91 1024.08 1024.01 1023.94 1023.53 1023.28 1022.50 1022.08 1021.66 1021.23 1021.16 1021.34 1021.39 1021.72 1021.60 1021.86 1021.91 1021.83 1021.78 1021.63 1021.29 1021.27 1021.57 1021.51 1021.32 1020.59 1019.86 1019.57 1019.72 1019.91 1020.17 1020.39 1020.74 1020.95 1021.58 1022.47 1022.82 1023.41 1023.98 1024.42 1024.84 1025.32 1025.83
1021.53 1022.95 1024.14 1024.34 1024.37 1023.96 1024.00 1024.21 1023.47 1023.06 1022.50 1022.18 1022.34 1022.27 1021.91 1022.59 1022.42 1022.48 1022.43 1022.34 1022.37 1022.34 1022.22 1022.26 1022.43 1022.40 1022.40 1021.71 1020.67 1020.39 1020.00 1020.25 1020.51 1020.43 1020.70 1021.18 1022.27 1022.76 1023.72 1024.39 1025.02 1025.43 1025.72 1026.01 1026.12
1021.23 1021.76 1022.37 1024.55 1024.93 1024.81 1024.57 1024.23 1023.99 1023.66 1023.64 1023.49 1023.37 1023.33 1023.20 1023.50 1023.22 1023.11 1022.82 1023.01 1023.12 1023.08 1023.29 1023.05 1023.11 1023.41 1023.80 1022.98 1021.95 1021.70 1020.49 1020.29 1020.60 1020.61 1021.00 1021.86 1022.52 1023.55 1024.59 1025.32 1025.64 1025.71 1025.53 1025.93 1026.27
Thickness
5518 5523 5528 5531 5536 5543 5549 5553 5560 5566 5569 5576 5586 5593 5601 5608 5618 5628 5629 5637 5644 5649 5657 5664 5672 5678 5682 5675 5682 5686 5666 5667 5684 5690 5706 5722 5723 5730 5734 5725 5729 5733 5726 5733 5727
5511 5516 5520 5525 5529 5534 5542 5548 5552 5559 5563 5567 5572 5585 5594 5600 5609 5618 5624 5632 5642 5650 5654 5656 5661 5667 5661 5666 5669 5665 5659 5678 5694 5700 5704 5714 5723 5722 5720 5718 5716 5721 5728 5732 5725
5503 5507 5511 5516 5521 5526 5532 5541 5547 5551 5559 5562 5566 5573 5582 5592 5604 5615 5619 5627 5636 5645 5649 5650 5658 5660 5658 5663 5661 5665 5665 5684 5692 5697 5704 5713 5715 5723 5712 5713 5719 5715 5719 5722 5721
5494 5498 5501 5506 5512 5518 5524 5529 5538 5546 5551 5556 5561 5566 5574 5582 5590 5604 5611 5621 5629 5638 5642 5641 5647 5647 5651 5651 5658 5652 5674 5676 5687 5693 5699 5706 5715 5713 5718 5722 5731 5726 5727 5721 5718
5484 5487 5492 5496 5502 5509 5515 5522 5527 5534 5543 5549 5554 5558 5566 5575 5586 5593 5601 5612 5621 5626 5629 5634 5639 5642 5645 5645 5649 5651 5660 5673 5680 5690 5695 5705 5710 5710 5715 5724 5727 5723 5721 5717 5715
5470 5474 5480 5485 5490 5498 5506 5513 5521 5527 5530 5537 5544 5549 5556 5568 5581 5586 5593 5600 5609 5616 5619 5627 5630 5635 5637 5642 5644 5648 5654 5665 5679 5682 5688 5696 5701 5707 5714 5715 5716 5715 5714 5713 5713
5457 5460 5465 5471 5476 5483 5493 5503 5511 5517 5525 5529 5533 5539 5549 5563 5573 5576 5582 5592 5601 5607 5610 5616 5623 5629 5634 5633 5634 5646 5651 5663 5673 5676 5676 5686 5687 5691 5707 5708 5707 5707 5706 5707 5708
5441 5445 5451 5456 5463 5470 5479 5490 5500 5508 5513 5520 5527 5533 5545 5556 5563 5566 5575 5581 5590 5598 5604 5610 5614 5616 5622 5623 5629 5630 5637 5638 5660 5660 5670 5674 5664 5692 5699 5701 5697 5698 5698 5702 5706
5425 5429 5435 5441 5448 5456 5466 5475 5487 5495 5504 5512 5516 5526 5534 5547 5554 5560 5569 5573 5579 5586 5592 5601 5605 5605 5611 5616 5613 5614 5619 5632 5644 5652 5643 5664 5667 5685 5688 5690 5689 5689 5693 5697 5700
5413 5416 5421 5426 5433 5442 5451 5462 5472 5482 5492 5501 5507 5511 5528 5541 5546 5551 5558 5566 5572 5577 5577 5588 5590 5597 5601 5608 5616 5612 5615 5621 5634 5633 5636 5652 5662 5671 5677 5679 5682 5683 5685 5690 5696
5411 5412 5413 5417 5421 5428 5437 5445 5455 5465 5481 5494 5507 5512 5526 5530 5538 5545 5551 5557 5565 5568 5566 5578 5584 5593 5600 5605 5609 5622 5620 5616 5621 5625 5625 5627 5644 5655 5661 5673 5671 5673 5679 5685 5692
5408 5408 5410 5412 5416 5420 5426 5434 5450 5465 5463 5480 5492 5500 5507 5518 5525 5534 5541 5549 5555 5559 5563 5568 5581 5594 5600 5601 5602 5613 5613 5606 5606 5609 5621 5622 5635 5647 5659 5663 5669 5676 5676 5682 5689
5406 5406 5408 5411 5416 5418 5421 5431 5440 5453 5455 5467 5481 5486 5494 5506 5520 5528 5534 5545 5549 5554 5558 5565 5581 5589 5593 5593 5593 5596 5607 5603 5609 5601 5608 5620 5630 5639 5657 5660 5668 5671 5676 5675 5677
5405 5407 5409 5412 5412 5415 5419 5429 5433 5441 5439 5449 5468 5477 5484 5495 5511 5523 5527 5534 5540 5548 5553 5561 5571 5580 5583 5585 5594 5588 5596 5599 5596 5600 5596 5599 5605 5621 5635 5644 5656 5658 5656 5657 5659
5403 5406 5409 5411 5411 5415 5419 5424 5429 5430 5396 5452 5461 5470 5482 5488 5503 5511 5512 5519 5534 5543 5548 5556 5564 5570 5576 5583 5585 5582 5585 5587 5588 5583 5585 5583 5589 5606 5620 5632 5637 5640 5634 5642 5645
5403 5407 5407 5409 5411 5411 5417 5422 5425 5413 5423 5444 5456 5468 5471 5478 5494 5497 5506 5513 5519 5530 5539 5547 5556 5564 5572 5577 5576 5573 5570 5568 5567 5571 5573 5580 5588 5597 5609 5617 5612 5613 5618 5624 5629
5404 5406 5407 5408 5408 5410 5415 5418 5415 5420 5422 5437 5445 5456 5476 5474 5481 5494 5500 5507 5515 5517 5522 5532 5542 5551 5562 5554 5560 5563 5566 5555 5555 5557 5567 5578 5575 5587 5607 5609 5614 5607 5602 5608 5612
5405 5407 5405 5405 5407 5411 5411 5405 5410 5407 5413 5426 5436 5445 5466 5475 5480 5490 5494 5495 5498 5503 5515 5519 5522 5539 5548 5556 5560 5559 5563 5562 5550 5552 5560 5570 5569 5584 5601 5607 5609 5604 5601 5597 5597
5406 5405 5404 5407 5409 5412 5404 5394 5395 5400 5411 5422 5436 5454 5455 5461 5479 5487 5484 5497 5487 5500 5504 5512 5519 5527 5547 5552 5555 5547 5552 5569 5552 5520 5557 5561 5572 5585 5590 5591 5593 5593 5595 5593 5592
5403 5402 5401 5407 5410 5409 5391 5397 5398 5405 5408 5423 5431 5445 5460 5464 5474 5481 5485 5476 5493 5498 5507 5507 5511 5513 5531 5548 5549 5555 5562 5554 5536 5538 5543 5557 5570 5566 5574 5578 5584 5579 5577 5577 5577
5401 5393 5403 5409 5410 5395 5373 5391 5402 5411 5411 5422 5426 5436 5454 5459 5470 5470 5471 5465 5481 5496 5505 5516 5518 5504 5508 5526 5533 5545 5548 5551 5553 5535 5534 5539 5555 5565 5570 5572 5576 5572 5569 5565 5564
5396 5380 5404 5408 5384 5379 5387 5391 5401 5411 5419 5418 5424 5429 5437 5447 5453 5457 5463 5465 5463 5475 5501 5504 5508 5496 5509 5523 5530 5545 5549 5554 5542 5540 5539 5547 5543 5559 5561 5560 5563 5561 5556 5549 5546
5393 5389 5404 5405 5369 5361 5371 5394 5402 5409 5419 5417 5424 5427 5431 5443 5448 5448 5450 5452 5465 5473 5491 5498 5476 5491 5494 5503 5523 5532 5543 5546 5540 5531 5532 5530 5528 5545 5549 5550 5549 5545 5539 5536 5534
5392 5379 5384 5385 5378 5377 5382 5387 5401 5413 5421 5427 5426 5426 5429 5436 5440 5445 5449 5446 5454 5469 5479 5492 5478 5491 5502 5515 5523 5521 5532 5535 5539 5510 5522 5534 5531 5533 5539 5543 5533 5525 5522 5523 5523
5384 5366 5365 5366 5374 5377 5389 5393 5390 5394 5410 5416 5421 5419 5429 5426 5429 5431 5441 5447 5450 5455 5467 5479 5460 5482 5487 5499 5516 5527 5526 5526 5529 5531 5533 5536 5537 5528 5527 5518 5515 5514 5514 5511 5508
5390 5382 5371 5351 5374 5395 5377 5374 5389 5388 5405 5414 5408 5414 5420 5414 5425 5419 5428 5439 5448 5450 5455 5458 5472 5465 5470 5479 5505 5506 5510 5510 5518 5522 5525 5524 5522 5514 5502 5500 5499 5499 5499 5498 5500
5400 5399 5395 5380 5366 5370 5374 5379 5397 5399 5400 5400 5409 5410 5411 5410 5418 5425 5431 5430 5434 5443 5449 5458 5463 5465 5465 5464 5486 5489 5499 5506 5508 5516 5518 5510 5512 5496 5491 5489 5486 5486 5489 5490 5490